Weather History for KAEG - October, 2012

Change the Weather History Date:

Thursday, October 11, 2012

  Actual Average Record
Temperature  
Mean Temperature 58 °F -  
Max Temperature 73 °F - - ()
Min Temperature 44 °F - - ()
Degree Days  
Heating Degree Days 6    
Growing Degree Days 8 (Base 50)    
Moisture  
Dew Point 29 °F    
Average Humidity 38    
Maximum Humidity 55    
Minimum Humidity 22    
Precipitation  
Precipitation 0.00 in - - ()
Sea Level Pressure  
Sea Level Pressure 30.15 in    
Wind  
Wind Speed 3 mph (SSE)    
Max Wind Speed 23 mph    
Max Gust Speed 29 mph    
Visibility 10 miles    
Events      
T = Trace of Precipitation, MM = Missing Value Source: NWS Daily Summary

Daily Weather History Graph

Daily Weather History Graph

Search for Another Location

Airport or City:

Trip Planner

Search our weather history database for the weather conditions in past years. The results will help you decide how hot, cold, wet, or windy it might be!

Date:

Astronomy

Oct. 11, 2012 Rise Set
Actual Time 7:10 AM MDT 6:36 PM MDT
Civil Twilight 6:44 AM MDT 7:02 PM MDT
Nautical Twilight 6:15 AM MDT 7:31 PM MDT
Astronomical Twilight 5:46 AM MDT 8:00 PM MDT
Moon 3:00 AM MDT (10/11) 4:07 PM MDT (10/11)
Length of Visible Light 12h 17m
Length of Day
11h 26m
Waning Crescent, 18% of the Moon is Illuminated
Oct 11
Waning Crescent
Oct 15
New
Oct 21
First Quarter
Oct 29
Full
Nov 6
Last Quarter

Hourly Weather History & Observations

Time (MDT) Temp. Dew Point Humidity Pressure Visibility Wind Dir Wind Speed Gust Speed Precip Events Conditions
12:15 AM 50.0 °F 23.0 °F 35% 30.14 in 10.0 mi Calm Calm - N/A   Clear
12:35 AM 51.8 °F 23.0 °F 33% 30.14 in 10.0 mi Calm Calm - N/A   Clear
12:55 AM 53.6 °F 24.8 °F 33% 30.13 in 10.0 mi Calm Calm - N/A   Clear
1:15 AM 51.8 °F 23.0 °F 33% 30.13 in 10.0 mi Calm Calm - N/A   Clear
1:55 AM 51.8 °F 24.8 °F 35% 30.13 in 10.0 mi South 6.9 mph - N/A   Clear
2:15 AM 50.0 °F 24.8 °F 37% 30.14 in 10.0 mi South 6.9 mph - N/A   Clear
2:35 AM 50.0 °F 24.8 °F 37% 30.14 in 10.0 mi SSE 5.8 mph - N/A   Clear
2:55 AM 48.2 °F 23.0 °F 37% 30.14 in 10.0 mi Calm Calm - N/A   Clear
3:15 AM 48.2 °F 23.0 °F 37% 30.14 in 10.0 mi Calm Calm - N/A   Clear
3:35 AM 44.6 °F 23.0 °F 43% 30.13 in 10.0 mi Calm Calm - N/A   Clear
3:55 AM 44.6 °F 23.0 °F 43% 30.13 in 10.0 mi Calm Calm - N/A   Clear
4:15 AM 46.4 °F 23.0 °F 40% 30.13 in 10.0 mi Calm Calm - N/A   Partly Cloudy
4:35 AM 46.4 °F 23.0 °F 40% 30.13 in 10.0 mi Calm Calm - N/A   Partly Cloudy
4:55 AM 46.4 °F 23.0 °F 40% 30.13 in 10.0 mi Calm Calm - N/A   Partly Cloudy
5:15 AM 46.4 °F 24.8 °F 43% 30.14 in 10.0 mi Calm Calm - N/A   Clear
5:35 AM 46.4 °F 24.8 °F 43% 30.14 in 10.0 mi Calm Calm - N/A   Clear
5:50 AM 46.4 °F 24.8 °F 43% 30.14 in 10.0 mi Calm Calm - N/A   Clear
6:50 AM 46.4 °F 24.8 °F 43% 30.16 in 10.0 mi Calm Calm - N/A   Scattered Clouds
7:50 AM 48.2 °F 26.6 °F 43% 30.17 in 10.0 mi Calm Calm - N/A   Scattered Clouds
8:50 AM 59.0 °F 28.4 °F 31% 30.18 in 10.0 mi Calm Calm - N/A   Clear
9:50 AM 64.4 °F 32.0 °F 30% 30.20 in 10.0 mi Calm Calm - N/A   Clear
10:50 AM 66.2 °F 32.0 °F 28% 30.21 in 10.0 mi SE 4.6 mph - N/A   Scattered Clouds
12:50 PM 71.6 °F 35.6 °F 27% 30.17 in 10.0 mi SSE 11.5 mph 16.1 mph N/A   Mostly Cloudy
1:50 PM 73.4 °F 33.8 °F 23% 30.14 in 10.0 mi SSE 15.0 mph 21.9 mph N/A   Mostly Cloudy
2:50 PM 73.4 °F 35.6 °F 25% 30.12 in 10.0 mi SE 10.4 mph 16.1 mph N/A   Mostly Cloudy
3:50 PM 73.4 °F 32.0 °F 22% 30.13 in 10.0 mi South 18.4 mph - N/A   Mostly Cloudy
4:50 PM 71.6 °F 37.4 °F 29% 30.13 in 10.0 mi South 23.0 mph 28.8 mph N/A   Mostly Cloudy
5:50 PM 71.6 °F 32.0 °F 23% 30.13 in 10.0 mi South 21.9 mph - N/A   Mostly Cloudy
7:50 PM 62.6 °F 37.4 °F 39% 30.15 in 10.0 mi South 9.2 mph - N/A   Scattered Clouds
10:15 PM 59.0 °F 39.2 °F 48% 30.19 in 10.0 mi South 5.8 mph - N/A   Partly Cloudy
10:35 PM 59.0 °F 39.2 °F 48% 30.19 in 10.0 mi SSE 6.9 mph - N/A   Partly Cloudy
10:55 PM 57.2 °F 39.2 °F 51% 30.19 in 10.0 mi SSE 5.8 mph - N/A   Clear
11:15 PM 55.4 °F 39.2 °F 54% 30.19 in 10.0 mi SE 4.6 mph - N/A   Clear
11:35 PM 55.4 °F 39.2 °F 54% 30.19 in 10.0 mi Calm Calm - N/A   Clear
11:55 PM 57.2 °F 41.0 °F 55% 30.18 in 10.0 mi Calm Calm - N/A   Clear